Regional Weather Roundup
Issued by NWS

Home | Current Version | Previous Version | Graphics & Text | Print | Product List | Glossary On
Versions: 1 2 3 4 5 6 7 8 9 10 11 12 13 14 15 16 17 18 19 20 21 22 23 24 25 26 27 28 29 30 31 32 33 34 35 36 37 38 39 40 41 42 43 44 45 46 47 48 49 50
000
ASUS43 KLSX 250657
RWRMO

WEATHER SUMMARY FOR MISSOURI
NATIONAL WEATHER SERVICE SPRINGFIELD MO
200 AM CDT MON JUL 25 2016

NOTE: "FAIR" INDICATES FEW OR NO CLOUDS BELOW 12,000 FEET WITH NO
       SIGNIFICANT WEATHER AND/OR OBSTRUCTIONS TO VISIBILITY.
       CURRENT SKY AND/OR WEATHER CONDITIONS ARE NOT AVAILABLE FOR
       CHILLICOTHE AND FARMINGTON.

MOZ001>031-035>038-043-044-053-054-250800-
...NORTHERN AND WESTERN MISSOURI...

CITY           SKY/WX    TMP DP  RH WIND       PRES   REMARKS
KANSAS CTY INT CLOUDY    75  71  87 N10       29.99S
LEE`S SUMMIT   CLOUDY    76  71  85 N5        29.98F
ST JOSEPH      CLOUDY    69  67  93 N7        30.00F

$$
MOZ066>068-077>081-088>096-101>105-250800-
...SOUTHWEST MISSOURI...

CITY           SKY/WX    TMP DP  RH WIND       PRES   REMARKS
SPRINGFIELD    PTCLDY    80  74  81 S5        29.98R
JOPLIN         PTCLDY    82  72  71 S10       29.94F

$$
MOZ032>034-039>042-045>050-055>058-069>072-250800-
...CENTRAL MISSOURI...

CITY           SKY/WX    TMP DP  RH WIND       PRES   REMARKS
COLUMBIA       NOT AVBL
JEFFERSON CITY LGT RAIN  75  72  90 E7        30.00F
ROLLA          LGT RAIN  73  69  87 NW12      30.00F
SEDALIA        CLOUDY    74  71  91 N6        30.00R

$$
MOZ051-052-059>065-250800-
...EAST CENTRAL MISSOURI...

CITY           SKY/WX    TMP DP  RH WIND       PRES   REMARKS
ST LOUIS INTL  CLOUDY    78  72  81 SE8       29.97R THUNDER
SPIRIT OF STL  CLOUDY    81  73  78 E8        29.96R
ST CHARLES     CLOUDY    75  75 100 SE8       29.94R

$$
MOZ072>076-082>087-097>100-106>115-250800-
...SOUTH CENTRAL AND SOUTHEAST MISSOURI...

CITY           SKY/WX    TMP DP  RH WIND       PRES   REMARKS
CAPE GIRARDEAU NOT AVBL
POPLAR BLUFF   PTCLDY    79  77  94 SE3       29.95F
WEST PLAINS    PTCLDY    77  72  84 CALM      30.02R

$$



USA.gov is the U.S. government's official web portal to all federal, state and local government web resources and services.